Globalstar M083

operational
NORAD ID: 37739 Int'l Des: 2011-033 Owner: GLOBL Country: US Constellation: globalstar
LEOCIRCULAR

About Globalstar M083

Description loading...

Live Position

Loading 3D Globe...

Upcoming Passes

Altitude History

Altitude vs Time

uPlot chart will show altitude changes over time

Two-Line Element Set

1 37739U 11033A 25299.13664498 -.00000085 00000-0 10419-3 0 9997
2 37739 51.9884 5.2938 0000463 133.2327 240.0820 12.62263904663395
Epoch: Oct 26, 2025 • Age: 6 hours

Current Status

Altitude 1413.7 km
Velocity 7.16 km/s
Sub-Earth Point 13.02°N, 155.04°W
Launch Date Jul 13, 2011
Age 14.2 years
Type communications

Technical Details

Classification Payload
Mass 715.00 kg
Dry Mass 500.00 kg
Total Mass 715.00 kg
Length 4.00 m
Diameter 2.00 m
Span 12.00 m
Shape Trap Cyl + 2 Pan
Manufacturer THALR
Bus Type Prisma
Phase Status In Orbit
Owner/State GLOBL/US

Large Constellations

Loading constellations...